#timestamp,LO_Frequency,Hit,StdDev 
1663138815.3,286046994.0,N
1663138835.1,286046993.6,N
1663138855.9,286046994.3,N
1663138875.7,286046993.3,Y
1663138895.6,286046996.9,P
1663138915.4,286046999.6,P
1663138935.2,286046995.3,P
1663138955.1,286046995.4,Y
1663138956.0,286046995.4,P
1663138975.8,286046999.5,N
1663138995.6,286046999.0,N
1663139015.5,286046999.2,N
1663139035.3,286046998.9,N
1663139055.2,286046999.1,N
1663139075.9,286046997.1,N
1663139095.7,286046997.2,N
1663139115.6,286046996.7,N
1663139135.4,286046999.1,N
1663139155.2,286046999.1,N
1663139175.1,286046997.0,N
1663139176.0,286046997.0,N
1663139195.8,286046997.1,N
1663139215.7,286046996.8,N
1663139235.5,286046997.4,N
1663139255.3,286046997.4,N
1663139275.2,286046996.8,N
1663139295.0,286046997.2,N
1663139295.9,286046997.2,N
1663139315.7,286046998.0,N
1663139335.6,286046997.4,N
1663139355.4,286046997.8,N
1663139375.3,286046997.7,N
1663139395.1,286046994.9,Y
1663139415.8,286046999.5,P
1663139435.7,286046998.4,N
1663139455.5,286046998.9,N
1663139475.4,286046998.8,N
1663139495.2,286046998.4,N
1663139515.0,286046998.3,Y
1663139515.9,286046998.3,P
1663139535.8,286046998.6,P
1663139555.6,286047000.4,N
1663139575.5,286047000.9,N
1663139595.3,286047002.4,N
1663139615.1,286047002.4,N
1663139635.9,286047000.8,N
1663139655.7,286047002.7,N
1663139675.6,286047000.5,N
1663139695.4,286047000.6,N
1663139715.2,286047000.4,N
1663139735.1,286046998.9,N
1663139736.0,286046998.9,N
1663139755.8,286046999.3,N
1663139775.6,286046999.3,N
1663139795.5,286046996.6,N
1663139815.3,286046996.5,N
1663139835.2,286046998.8,N
1663139855.0,286046998.4,N
1663139855.9,286046998.4,N
1663139875.8,286046998.6,N
1663139895.6,286046998.6,N
1663139915.4,286046998.8,N
1663139935.3,286046998.3,N
1663139955.1,286046998.5,N
1663139975.8,286046998.5,N
1663139995.7,286046999.2,N
1663140015.5,286046997.3,N
1663140035.4,286046996.6,N
1663140055.2,286046996.6,N
1663140075.0,286046996.7,N
1663140075.9,286046996.7,N
1663140095.8,286046999.1,N
1663140115.6,286047001.2,N
1663140135.4,286046998.7,N
1663140155.3,286046998.8,N
1663140175.1,286046998.7,N
1663140195.9,286046999.5,N
1663140215.7,286046999.5,N
1663140235.5,286046999.2,N
1663140255.4,286046998.9,N
1663140275.2,286046998.4,N
1663140295.0,286047001.0,N
1663140296.0,286047001.0,N
1663140315.8,286046998.9,N
1663140335.6,286046998.8,N
1663140355.5,286046996.5,N
1663140375.3,286046999.4,N
1663140395.1,286046996.5,N
1663140415.9,286046998.4,N
1663140435.7,286046998.9,N
1663140455.6,286047000.8,N
1663140475.4,286047000.2,N
1663140495.2,286046998.1,N
1663140515.1,286046996.6,N
1663140516.0,286046996.6,N
1663140535.8,286046997.5,N
1663140555.6,286046995.0,Y
1663140575.5,286046999.1,P
1663140595.3,286046998.3,P
1663140615.2,286047001.2,P
1663140635.9,286047001.2,N
1663140655.7,286046999.9,N
1663140675.6,286046999.7,N
1663140695.4,286047002.0,N
1663140715.2,286047002.2,N
1663140735.1,286047002.2,N
1663140736.0,286047002.2,N
1663140755.8,286047002.3,N
1663140775.7,286046998.2,N
1663140795.5,286046998.7,N
1663140815.3,286046999.1,N
1663140835.2,286046999.6,N
1663140855.0,286046999.6,N
1663140855.9,286046999.6,N
1663140875.7,286046996.6,N
1663140895.6,286046996.9,N
1663140915.4,286046997.3,N
1663140935.3,286046997.0,N
1663140955.1,286046997.1,N
1663140956.0,286046997.1,N
1663140975.8,286046997.1,N
1663140995.7,286046995.2,N
1663141015.5,286046997.0,N
1663141035.3,286046996.7,N
1663141055.2,286046996.9,N
1663141075.0,286046996.9,N
1663141075.9,286046996.9,N
1663141095.8,286046997.1,N
1663141115.6,286046999.5,N
1663141135.4,286046999.3,N
1663141155.3,286046998.9,N
1663141175.1,286046999.2,N
1663141195.8,286046999.2,N
1663141215.7,286046999.1,N
1663141235.5,286046998.5,N
1663141255.4,286046998.2,N
1663141275.2,286047000.8,N
1663141295.0,286047001.2,N
1663141295.9,286047001.2,N
1663141315.8,286047000.5,N
1663141335.6,286047000.7,N
1663141355.4,286047002.8,N
1663141375.3,286047000.0,N
1663141395.1,286047000.0,N
1663141415.9,286047000.5,N
1663141435.7,286047001.0,N
1663141455.5,286046999.9,N
1663141475.4,286047001.1,N
1663141495.2,286047000.3,N
1663141515.0,286047000.1,N
1663141515.9,286047000.1,N
1663141535.8,286047000.5,N
1663141555.6,286047000.5,N
1663141575.5,286047000.6,N
1663141595.3,286047002.8,N
1663141615.1,286047000.2,N
1663141635.9,286047000.1,N
1663141655.7,286047002.2,N
1663141675.5,286046999.7,N
1663141695.4,286047002.5,N
1663141715.2,286046999.7,N
1663141735.1,286047002.4,N
1663141736.0,286047002.4,N
1663141755.8,286047002.1,N
1663141775.6,286047002.3,N
1663141795.5,286047002.4,N
1663141815.3,286047002.0,N
1663141835.1,286047002.0,N
1663141855.9,286047001.6,N
1663141875.7,286047004.4,Y
1663141895.6,286047002.5,P
1663141915.4,286047002.1,N
1663141935.2,286047002.6,P
1663141955.1,286047002.0,Y
1663141956.0,286047002.0,P
1663141975.8,286047001.1,P
1663141995.7,286047000.7,N
1663142015.5,286046999.9,N
1663142035.3,286047001.0,N
1663142055.2,286047000.3,N
1663142075.0,286047000.1,N
1663142075.9,286047000.1,N
1663142095.8,286047002.8,Y
1663142115.6,286046999.9,P
1663142135.4,286047000.4,N
1663142155.3,286047000.3,N
1663142175.1,286047000.5,N
1663142195.8,286047000.6,N
1663142215.7,286047001.1,Y
1663142235.5,286047000.5,P
1663142255.4,286046998.3,P
1663142275.2,286046998.6,N
1663142295.0,286047000.4,N
1663142295.9,286047000.4,N
1663142315.8,286047001.9,N
1663142335.6,286046999.8,N
1663142355.4,286047000.5,N
1663142375.3,286047000.6,N
1663142395.1,286047001.0,N
